カタログに戻る

COSMOS 1823 DEB

運用中LEO
NORAD 18756·DEBRIS·🇷🇺 Russia

打ち上げ Feb 20, 1987 から Plesetsk Cosmodrome

Loading…

次のパス (今後24時間)

TLE

最新Source: Space-Track

元期: Sep 14, 2026, 00:48 UTC

1 18756U 87020AH  26257.03371251  .00000055  00000-0  51521-3 0  9995
2 18756  73.6283 265.2559 0030695   5.6469  22.4743 12.44201517757418

AllMySatでCOSMOS 1823 DEBをリアルタイム追跡

Download on the App Store